Location: Brno
(49.2000°N, 16.6330°E)
Time: 01:37:35
(UTC+02:00)

CARTOSAT-1 - Visible Passes

Search period start: 19 April 2014 00:00
Search period end: 29 April 2014 00:00
Orbit: 617 x 620 km, 97.8° (Epoch: 18 April)

Date Brightness Start Highest point End Pass type
(mag) Time Alt. Az. Time Alt. Az. Time Alt. Az.
19 Apr 5.8 00:01:42 17° W 00:01:42 17° W 00:04:16 10° NW visible
19 Apr 5.7 21:04:38 10° E 21:06:18 12° NE 21:07:59 10° NNE visible
19 Apr 3.4 22:41:25 77° SE 22:41:41 84° ENE 22:46:02 10° NNW visible
20 Apr 6.2 00:18:32 12° W 00:18:32 12° W 00:19:56 10° WNW visible
20 Apr 5.4 21:21:08 14° E 21:22:50 17° ENE 21:25:33 10° NNE visible
20 Apr 3.6 22:58:15 66° WSW 22:58:26 67° WSW 23:02:45 10° NNW visible
21 Apr 5.1 21:37:57 19° E 21:39:23 23° ENE 21:42:45 10° NNE visible
21 Apr 4.2 23:15:05 45° WSW 23:15:13 45° W 23:19:23 10° NNW visible
22 Apr 4.6 21:54:47 26° E 21:55:58 31° ENE 21:59:47 10° N visible
22 Apr 4.8 23:31:54 31° W 23:32:02 31° W 23:35:54 10° NNW visible
23 Apr 4.1 22:11:36 37° ESE 22:12:36 44° ENE 22:16:42 10° N visible
23 Apr 5.4 23:48:43 22° W 23:48:53 22° W 23:52:16 10° NW visible
24 Apr 3.6 22:28:25 51° SE 22:29:16 64° ENE 22:33:33 10° N visible
25 Apr 5.8 00:05:32 15° W 00:05:46 15° W 00:08:22 10° NW visible
25 Apr 5.7 21:08:31 10° E 21:10:31 13° ENE 21:12:32 10° NNE visible
25 Apr 3.5 22:45:14 62° SSE 22:45:57 88° WSW 22:50:18 10° NNW visible
26 Apr 6.2 00:22:21 10° W 00:22:42 11° W 00:23:34 10° WNW visible
26 Apr 5.4 21:24:55 13° E 21:27:02 18° ENE 21:29:56 10° NNE visible
26 Apr 3.8 23:02:03 53° SW 23:02:41 61° W 23:06:59 10° NNW visible
27 Apr 5.0 21:41:44 18° E 21:43:34 24° ENE 21:47:04 10° N visible
27 Apr 4.4 23:18:51 39° WSW 23:19:27 41° W 23:23:34 10° NNW visible
28 Apr 4.5 21:58:32 25° ESE 22:00:09 34° ENE 22:04:03 10° N visible
28 Apr 4.9 23:35:39 27° WSW 23:36:16 29° W 23:40:02 10° NW visible
